Weather History for KCVX - April, 2013

Change the Weather History Date:

Sunday, April 7, 2013

  Actual Average Record
Temperature  
Mean Temperature 38 °F -  
Max Temperature 47 °F 42 °F 64 °F (2008)
Min Temperature 29 °F 32 °F 15 °F (2007)
Degree Days  
Heating Degree Days 27    
Moisture  
Dew Point 34 °F    
Average Humidity 88    
Maximum Humidity 100    
Minimum Humidity 58    
Precipitation  
Precipitation 0.00 in - - ()
Sea Level Pressure  
Sea Level Pressure 29.78 in    
Wind  
Wind Speed 12 mph (West)    
Max Wind Speed 21 mph    
Max Gust Speed 26 mph    
Visibility 8 miles    
Events Rain , Snow    
Averages and records for this station are not official NWS values.
T = Trace of Precipitation, MM = Missing Value Source: NWS Daily Summary

Daily Weather History Graph

Daily Weather History Graph

Search for Another Location

Airport or City:

Trip Planner

Search our weather history database for the weather conditions in past years. The results will help you decide how hot, cold, wet, or windy it might be!

Date:

Astronomy

Apr. 07, 2013 Rise Set
Actual Time 7:09 AM EDT 8:17 PM EDT
Civil Twilight 6:39 AM EDT 8:47 PM EDT
Nautical Twilight 6:03 AM EDT 9:23 PM EDT
Astronomical Twilight 5:25 AM EDT 10:02 PM EDT
Moon 5:34 AM EDT (4/7) 5:42 PM EDT (4/7)
Length of Visible Light 14h 07m
Length of Day
13h 07m
Waning Crescent, 8% of the Moon is Illuminated
Apr 7
Waning Crescent
Apr 10
New
Apr 18
First Quarter
Apr 25
Full
May 2
Last Quarter

Hourly Weather History & Observations

Time (EDT) Temp. Windchill Dew Point Humidity Pressure Visibility Wind Dir Wind Speed Gust Speed Precip Events Conditions
12:14 AM 43.7 °F 37.3 °F 30.7 °F 60% 29.56 in 10.0 mi SE 12.7 mph - N/A Rain Light Rain
12:34 AM 44.6 °F 39.2 °F 30.7 °F 58% 29.54 in 10.0 mi SSE 10.4 mph 19.6 mph N/A   Overcast
12:54 AM 45.1 °F 39.1 °F 32.0 °F 60% 29.52 in 10.0 mi SSE 12.7 mph - N/A   Overcast
1:15 AM 46.0 °F 40.6 °F 32.7 °F 60% 29.51 in 10.0 mi SSE 11.5 mph 19.6 mph N/A   Overcast
1:34 AM 44.1 °F 38.1 °F 35.8 °F 73% 29.50 in 10.0 mi SSE 11.5 mph 16.1 mph N/A Rain Light Rain
1:54 AM 45.3 °F 40.1 °F 38.7 °F 78% 29.49 in 10.0 mi South 10.4 mph 18.4 mph N/A   Drizzle
2:14 AM 46.4 °F 40.4 °F 40.8 °F 81% 29.48 in 7.0 mi South 13.8 mph 21.9 mph N/A   Drizzle
2:34 AM 46.0 °F 40.2 °F 42.3 °F 87% 29.47 in 7.0 mi South 12.7 mph 19.6 mph N/A Rain Light Rain
2:55 AM 46.8 °F - 44.1 °F 90% 29.46 in 7.0 mi SSW 10.4 mph 21.9 mph N/A Rain Light Rain
3:14 AM 46.6 °F - 45.3 °F 95% 29.45 in 4.0 mi South 12.7 mph 18.4 mph N/A   Light Drizzle
3:34 AM 46.6 °F - 45.7 °F 97% 29.44 in 4.0 mi SSW 9.2 mph 21.9 mph N/A   Drizzle
3:55 AM 47.1 °F - 46.6 °F 98% 29.44 in 4.0 mi SSW 15.0 mph 19.6 mph N/A Rain Rain
4:14 AM 47.3 °F - 46.8 °F 98% 29.44 in 4.0 mi SW 9.2 mph 16.1 mph N/A   Light Drizzle
4:34 AM 45.5 °F 38.3 °F 45.1 °F 99% 29.44 in 2.0 mi WSW 17.3 mph 25.3 mph N/A Rain Rain
4:55 AM 42.1 °F 34.9 °F 41.7 °F 99% 29.45 in 3.0 mi WSW 13.8 mph 23.0 mph N/A   Overcast
5:14 AM 40.1 °F 32.0 °F 40.1 °F 100% 29.46 in 2.0 mi WSW 15.0 mph 19.6 mph N/A   Overcast
5:34 AM 38.3 °F 30.5 °F 38.3 °F 100% 29.47 in 1.5 mi West 12.7 mph 20.7 mph N/A   Overcast
5:54 AM 37.2 °F 28.3 °F 37.2 °F 100% 29.48 in 1.5 mi West 15.0 mph 19.6 mph N/A Rain Light Rain
6:14 AM 35.6 °F 25.5 °F 35.6 °F 100% 29.51 in 2.5 mi West 17.3 mph - N/A Rain Light Rain
6:34 AM 35.1 °F 24.5 °F 35.1 °F 100% 29.53 in 2.5 mi West 18.4 mph 24.2 mph N/A Rain Light Rain
6:54 AM 34.7 °F 23.4 °F 34.7 °F 100% 29.55 in 3.0 mi West 20.7 mph 24.2 mph N/A Rain Light Rain
7:14 AM 33.4 °F 22.0 °F 33.4 °F 100% 29.58 in 2.0 mi West 19.6 mph 26.5 mph N/A Snow Light Snow
7:34 AM 32.9 °F 21.3 °F 32.9 °F 100% 29.60 in 0.8 mi West 19.6 mph 25.3 mph N/A Snow Light Snow
7:55 AM 32.9 °F 23.2 °F 32.9 °F 100% 29.62 in 0.5 mi West 13.8 mph - N/A Snow Snow
8:14 AM 32.9 °F 22.8 °F 32.9 °F 100% 29.64 in 1.8 mi West 15.0 mph - N/A Snow Light Snow
8:34 AM 33.8 °F 23.9 °F 33.8 °F 100% 29.66 in 10.0 mi West 15.0 mph - N/A Snow Light Snow
8:55 AM 34.0 °F 23.4 °F 34.0 °F 100% 29.67 in 10.0 mi West 17.3 mph 21.9 mph N/A   Overcast
9:14 AM 34.3 °F 23.9 °F 34.2 °F 99% 29.68 in 10.0 mi WNW 17.3 mph - N/A   Overcast
9:35 AM 34.7 °F 23.7 °F 34.2 °F 98% 29.70 in 10.0 mi WNW 19.6 mph 23.0 mph N/A   Overcast
9:55 AM 34.9 °F 24.9 °F 34.7 °F 99% 29.71 in 10.0 mi WNW 16.1 mph 24.2 mph N/A   Overcast
10:14 AM 35.4 °F 25.6 °F 34.9 °F 98% 29.72 in 10.0 mi WNW 16.1 mph 23.0 mph N/A   Overcast
10:35 AM 35.8 °F 26.9 °F 35.1 °F 97% 29.74 in 10.0 mi WNW 13.8 mph 23.0 mph N/A   Overcast
10:55 AM 36.0 °F 26.7 °F 35.1 °F 97% 29.76 in 10.0 mi WNW 15.0 mph 20.7 mph N/A   Overcast
11:14 AM 36.0 °F 26.3 °F 34.9 °F 96% 29.78 in 10.0 mi WNW 16.1 mph - N/A   Overcast
11:35 AM 36.1 °F 27.3 °F 34.7 °F 94% 29.80 in 10.0 mi WNW 13.8 mph 18.4 mph N/A   Overcast
11:54 AM 36.1 °F 26.5 °F 34.9 °F 95% 29.82 in 10.0 mi West 16.1 mph - N/A   Overcast
12:15 PM 36.7 °F 28.4 °F 34.7 °F 93% 29.83 in 10.0 mi WNW 12.7 mph - N/A   Overcast
12:35 PM 37.0 °F 28.5 °F 34.5 °F 91% 29.85 in 10.0 mi WNW 13.8 mph 19.6 mph N/A   Overcast
12:54 PM 37.9 °F 29.6 °F 35.1 °F 89% 29.86 in 10.0 mi WNW 13.8 mph - N/A   Overcast
1:15 PM 37.8 °F 28.6 °F 34.3 °F 87% 29.87 in 10.0 mi West 16.1 mph - N/A   Overcast
1:34 PM 39.0 °F 29.6 °F 35.1 °F 86% 29.88 in 10.0 mi West 18.4 mph - N/A   Overcast
1:54 PM 39.2 °F 29.8 °F 34.2 °F 82% 29.89 in 10.0 mi West 18.4 mph - N/A   Overcast
2:15 PM 38.5 °F 29.9 °F 33.6 °F 83% 29.91 in 10.0 mi West 15.0 mph 25.3 mph N/A   Overcast
2:34 PM 38.8 °F 29.4 °F 33.6 °F 82% 29.92 in 10.0 mi West 18.4 mph 23.0 mph N/A   Overcast
2:54 PM 38.5 °F 29.9 °F 33.1 °F 81% 29.94 in 10.0 mi West 15.0 mph 20.7 mph N/A   Overcast
3:14 PM 39.0 °F 30.6 °F 33.4 °F 80% 29.94 in 10.0 mi West 15.0 mph - N/A   Overcast
3:34 PM 39.4 °F 31.4 °F 33.1 °F 78% 29.94 in 10.0 mi West 13.8 mph 19.6 mph N/A   Overcast
3:55 PM 40.1 °F 32.4 °F 33.8 °F 78% 29.95 in 10.0 mi West 13.8 mph - N/A   Overcast
4:14 PM 38.8 °F 30.4 °F 32.9 °F 79% 29.96 in 10.0 mi West 15.0 mph - N/A   Overcast
4:34 PM 38.3 °F 29.7 °F 32.5 °F 80% 29.97 in 10.0 mi West 15.0 mph - N/A   Overcast
4:55 PM 38.3 °F 29.7 °F 32.4 °F 79% 29.98 in 10.0 mi West 15.0 mph - N/A   Overcast
5:14 PM 38.3 °F 30.1 °F 32.2 °F 79% 29.99 in 10.0 mi West 13.8 mph - N/A   Overcast
5:34 PM 37.6 °F 30.5 °F 32.0 °F 80% 30.00 in 10.0 mi West 10.4 mph - N/A   Overcast
5:55 PM 37.8 °F 30.7 °F 30.9 °F 76% 30.01 in 10.0 mi WNW 10.4 mph - N/A   Overcast
6:14 PM 37.8 °F 31.3 °F 30.4 °F 75% 30.01 in 10.0 mi NW 9.2 mph - N/A   Overcast
6:35 PM 37.2 °F 32.6 °F 30.7 °F 77% 30.01 in 10.0 mi NNW 5.8 mph - N/A   Mostly Cloudy
6:55 PM 37.0 °F 32.4 °F 30.4 °F 77% 30.01 in 10.0 mi NW 5.8 mph - N/A   Mostly Cloudy
7:14 PM 36.3 °F 32.5 °F 29.3 °F 76% 30.00 in 10.0 mi NNW 4.6 mph - N/A   Mostly Cloudy
7:35 PM 36.1 °F 33.5 °F 29.5 °F 77% 30.02 in 10.0 mi West 3.5 mph - N/A   Mostly Cloudy
7:55 PM 36.1 °F 32.3 °F 30.2 °F 79% 30.03 in 10.0 mi West 4.6 mph - N/A   Overcast
8:14 PM 36.0 °F 33.3 °F 29.8 °F 78% 30.03 in 10.0 mi WNW 3.5 mph - N/A   Overcast
8:35 PM 35.2 °F - 30.2 °F 82% 30.03 in 10.0 mi Calm Calm - N/A   Overcast
8:54 PM 35.1 °F - 30.0 °F 82% 30.03 in 10.0 mi Calm Calm - N/A   Overcast
9:15 PM 34.5 °F - 30.0 °F 84% 30.03 in 10.0 mi Calm Calm - N/A   Overcast
9:34 PM 33.8 °F - 30.7 °F 89% 30.04 in 10.0 mi Calm Calm - N/A   Mostly Cloudy
9:55 PM 32.4 °F - 30.2 °F 92% 30.05 in 10.0 mi Calm Calm - N/A   Scattered Clouds
10:14 PM 31.8 °F - 30.0 °F 93% 30.05 in 10.0 mi Calm Calm - N/A   Clear
10:34 PM 31.1 °F - 30.0 °F 96% 30.06 in 10.0 mi Calm Calm - N/A   Clear
10:54 PM 30.2 °F - 29.8 °F 99% 30.07 in 10.0 mi Calm Calm - N/A   Clear
11:14 PM 29.5 °F 25.9 °F 29.3 °F 99% 30.06 in 10.0 mi SE 3.5 mph - N/A   Clear
11:34 PM 29.5 °F - 29.3 °F 99% 30.07 in 10.0 mi Calm Calm - N/A   Clear
11:54 PM 29.1 °F - 29.1 °F 100% 30.07 in 10.0 mi Calm Calm - N/A   Clear